Voltar ao catálogo

COSMOS 2251 DEB

AtivoLEO
NORAD 35777·DEBRIS·🇷🇺 Russia

Lançado Jun 16, 1993 de Plesetsk Cosmodrome

Loading…

Próximas Passagens (próximas 24 horas)

TLE

EnvelhecendoSource: Space-Track

Época: Sep 11, 2026, 08:41 UTC

1 35777U 93036ARX 26254.36187883  .00000252  00000-0  26869-3 0  9996
2 35777  73.7676 247.1008 0447904 101.5019 329.1049 13.41546136833404

Acompanhe COSMOS 2251 DEB em tempo real com AllMySat

Download on the App Store